QPF
0.00 0.00 0.00 0.00 0.00 0.00 0.00 0.00 0.00 0.00 0.00 0.00 0.00 0.00 0.00 0.00 0.00 0.00 0.00 0.00 0.00 0.00 0.00 0.00 0.01 0.01 0.01 0.02 0.02 0.03 0.03 0.02 0.02 0.03 0.04 0.02 0.02 0.02 0.01 0.00 0.01 0.02 0.03 0.02
0.00 0.00 0.00 0.00 0.00 0.00 0.00 0.00 0.00 0.00 0.00 0.00 0.00 0.00 0.00 0.00 0.00 0.00 0.00 0.00 0.00 0.01 0.01 0.00 0.00 0.01 0.01 0.02 0.03 0.03 0.03 0.02 0.02 0.03 0.05 0.03 0.02 0.03 0.02 0.01 0.01 0.02 0.02 0.03
0.00 0.00 0.00 0.00 0.00 0.00 0.00 0.00 0.00 0.00 0.00 0.00 0.00 0.00 0.00 0.00 0.00 0.01 0.00 0.00 0.01 0.01 0.01 0.01 0.01 0.01 0.01 0.01 0.03 0.04 0.05 0.03 0.03 0.03 0.04 0.03 0.02 0.03 0.02 0.01 0.00 0.01 0.01 0.02
0.01 0.00 0.00 0.00 0.00 0.00 0.00 0.00 0.00 0.00 0.00 0.00 0.00 0.00 0.00 0.00 0.00 0.00 0.01 0.00 0.00 0.01 0.01 0.01 0.01 0.01 0.02 0.02 0.02 0.03 0.04 0.06 0.05 0.03 0.03 0.04 0.03 0.02 0.02 0.01 0.01 0.00 0.01 0.01
0.01 0.01 0.00 0.00 0.00 0.00 0.00 0.00 0.00 0.00 0.00 0.00 0.00 0.00 0.00 0.00 0.00 0.00 0.00 0.00 0.00 0.01 0.01 0.01 0.01 0.01 0.02 0.03 0.04 0.03 0.03 0.05 0.06 0.06 0.05 0.05 0.04 0.03 0.03 0.01 0.01 0.01 0.00 0.01
0.01 0.01 0.00 0.00 0.00 0.00 0.00 0.00 0.00 0.00 0.00 0.00 0.00 0.00 0.00 0.00 0.00 0.00 0.00 0.01 0.02 0.04 0.03 0.02 0.01 0.02 0.01 0.02 0.03 0.03 0.04 0.04 0.04 0.05 0.05 0.05 0.04 0.04 0.03 0.03 0.02 0.02 0.02 0.01
0.01 0.01 0.00 0.00 0.00 0.00 0.00 0.00 0.00 0.00 0.00 0.00 0.00 0.00 0.00 0.00 0.00 0.00 0.00 0.01 0.02 0.03 0.04 0.02 0.02 0.03 0.03 0.02 0.03 0.04 0.04 0.04 0.03 0.03 0.03 0.03 0.04 0.04 0.03 0.03 0.03 0.03 0.02 0.02
0.00 0.01 0.00 0.00 0.00 0.00 0.00 0.00 0.00 0.00 0.00 0.00 0.00 0.00 0.00 0.00 0.01 0.01 0.01 0.01 0.01 0.01 0.03 0.02 0.02 0.03 0.04 0.03 0.03 0.04 0.04 0.04 0.04 0.03 0.02 0.02 0.02 0.02 0.02 0.02 0.02 0.03 0.02 0.02
0.00 0.00 0.00 0.00 0.00 0.00 0.00 0.00 0.00 0.00 0.00 0.00 0.00 0.00 0.00 0.00 0.00 0.00 0.01 0.02 0.02 0.01 0.02 0.03 0.03 0.03 0.03 0.03 0.03 0.03 0.05 0.06 0.06 0.04 0.03 0.02 0.02 0.02 0.02 0.02 0.02 0.01 0.01 0.01
0.00 0.00 0.00 0.00 0.00 0.00 0.00 0.00 0.00 0.00 0.00 0.00 0.00 0.00 0.00 0.00 0.00 0.00 0.00 0.01 0.01 0.01 0.01 0.02 0.03 0.02 0.02 0.03 0.03 0.03 0.04 0.06 0.07 0.07 0.04 0.03 0.02 0.02 0.02 0.02 0.02 0.01 0.01 0.01
0.00 0.00 0.00 0.00 0.00 0.00 0.00 0.00 0.00 0.00 0.00 0.00 0.00 0.00 0.00 0.00 0.00 0.00 0.00 0.00 0.00 0.01 0.01 0.01 0.01 0.01 0.01 0.02 0.03 0.03 0.04 0.04 0.05 0.06 0.04 0.04 0.04 0.03 0.02 0.02 0.02 0.02 0.03 0.03
0.00 0.00 0.00 0.00 0.00 0.00 0.00 0.00 0.00 0.00 0.00 0.00 0.00 0.00 0.00 0.00 0.00 0.00 0.00 0.00 0.00 0.00 0.00 0.01 0.01 0.02 0.02 0.02 0.03 0.03 0.03 0.04 0.04 0.04 0.04 0.04 0.04 0.05 0.04 0.04 0.05 0.05 0.04 0.04
0.00 0.00 0.00 0.00 0.00 0.00 0.00 0.00 0.00 0.00 0.00 0.00 0.00 0.00 0.00 0.00 0.00 0.00 0.00 0.00 0.00 0.00 0.00 0.00 0.01 0.02 0.03 0.02 0.02 0.02 0.03 0.04 0.04 0.04 0.04 0.05 0.05 0.06 0.06 0.05 0.04 0.05 0.05 0.04
0.00 0.00 0.00 0.00 0.00 0.00 0.00 0.00 0.00 0.00 0.00 0.00 0.00 0.00 0.00 0.00 0.00 0.00 0.00 0.00 0.00 0.00 0.00 0.00 0.00 0.01 0.01 0.02 0.03 0.02 0.02 0.04 0.04 0.05 0.04 0.04 0.04 0.04 0.04 0.06 0.06 0.05 0.03 0.03
0.00 0.00 0.00 0.00 0.00 0.00 0.00 0.00 0.00 0.00 0.00 0.00 0.00 0.00 0.01 0.01 0.01 0.00 0.00 0.00 0.00 0.00 0.00 0.00 0.00 0.00 0.01 0.01 0.02 0.02 0.01 0.02 0.03 0.04 0.04 0.03 0.03 0.04 0.03 0.04 0.05 0.06 0.05 0.04
0.00 0.00 0.00 0.00 0.00 0.00 0.00 0.00 0.00 0.00 0.00 0.00 0.00 0.01 0.01 0.01 0.01 0.00 0.00 0.00 0.00 0.00 0.00 0.00 0.00 0.00 0.00 0.00 0.00 0.01 0.01 0.01 0.01 0.02 0.02 0.02 0.02 0.02 0.02 0.02 0.03 0.04 0.04 0.04
0.00 0.00 0.00 0.00 0.00 0.00 0.00 0.00 0.00 0.00 0.00 0.00 0.01 0.01 0.01 0.01 0.01 0.01 0.00 0.00 0.00 0.00 0.00 0.00 0.00 0.00 0.00 0.00 0.00 0.00 0.01 0.01 0.01 0.02 0.01 0.01 0.01 0.01 0.01 0.01 0.02 0.03 0.03 0.03
0.00 0.00 0.00 0.00 0.00 0.00 0.00 0.00 0.00 0.00 0.00 0.00 0.00 0.00 0.01 0.01 0.01 0.01 0.01 0.00 0.00 0.00 0.00 0.00 0.00 0.00 0.00 0.00 0.00 0.00 0.01 0.00 0.00 0.01 0.01 0.01 0.01 0.01 0.01 0.01 0.02 0.03 0.02 0.01
0.00 0.00 0.00 0.00 0.00 0.00 0.00 0.00 0.00 0.00 0.00 0.00 0.00 0.00 0.00 0.01 0.01 0.01 0.01 0.01 0.00 0.00 0.00 0.00 0.00 0.00 0.00 0.00 0.00 0.00 0.00 0.00 0.00 0.00 0.00 0.00 0.00 0.00 0.01 0.01 0.01 0.02 0.02 0.02
0.00 0.00 0.00 0.00 0.00 0.00 0.00 0.00 0.00 0.00 0.00 0.00 0.00 0.00 0.00 0.00 0.01 0.01 0.01 0.01 0.00 0.00 0.00 0.00 0.00 0.00 0.00 0.00 0.00 0.00 0.00 0.00 0.00 0.00 0.00 0.00 0.00 0.00 0.00 0.01 0.01 0.01 0.02 0.01
0.00 0.00 0.00 0.00 0.00 0.00 0.00 0.00 0.00 0.00 0.00 0.00 0.00 0.00 0.00 0.00 0.01 0.01 0.01 0.01 0.00 0.00 0.00 0.00 0.00 0.00 0.00 0.00 0.00 0.00 0.00 0.00 0.00 0.00 0.00 0.00 0.00 0.01 0.01 0.01 0.01 0.01 0.01 0.01
0.00 0.00 0.00 0.00 0.00 0.00 0.00 0.00 0.00 0.00 0.00 0.00 0.00 0.00 0.01 0.01 0.01 0.01 0.01 0.01 0.00 0.00 0.00 0.00 0.00 0.00 0.00 0.00 0.00 0.00 0.00 0.00 0.00 0.00 0.00 0.00 0.00 0.00 0.01 0.01 0.01 0.01 0.02 0.01
0.00 0.00 0.00 0.00 0.00 0.00 0.00 0.00 0.00 0.00 0.00 0.00 0.00 0.01 0.01 0.01 0.01 0.01 0.01 0.01 0.00 0.00 0.00 0.00 0.00 0.00 0.00 0.00 0.00 0.00 0.00 0.00 0.00 0.00 0.00 0.00 0.00 0.00 0.00 0.00 0.01 0.01 0.01 0.01
0.00 0.00 0.00 0.00 0.00 0.00 0.00 0.00 0.00 0.00 0.00 0.00 0.01 0.01 0.01 0.02 0.01 0.01 0.01 0.01 0.01 0.00 0.00 0.00 0.00 0.00 0.01 0.01 0.00 0.01 0.01 0.00 0.00 0.00 0.00 0.00 0.00 0.00 0.01 0.00 0.00 0.01 0.01 0.01
0.00 0.00 0.00 0.00 0.00 0.00 0.00 0.00 0.00 0.00 0.01 0.01 0.01 0.01 0.02 0.02 0.01 0.01 0.01 0.01 0.01 0.01 0.01 0.01 0.01 0.01 0.01 0.00 0.00 0.00 0.00 0.00 0.00 0.00 0.00 0.00 0.00 0.01 0.01 0.01 0.01 0.01 0.01 0.01
0.01 0.00 0.00 0.00 0.00 0.00 0.00 0.00 0.01 0.01 0.01 0.01 0.02 0.02 0.02 0.02 0.02 0.02 0.02 0.02 0.01 0.01 0.01 0.01 0.01 0.00 0.00 0.00 0.00 0.00 0.00 0.00 0.00 0.01 0.01 0.01 0.01 0.01 0.01 0.01 0.01 0.01 0.02 0.02
0.02 0.02 0.01 0.01 0.01 0.01 0.01 0.01 0.02 0.02 0.02 0.03 0.04 0.04 0.04 0.04 0.03 0.03 0.03 0.02 0.01 0.01 0.01 0.00 0.00 0.00 0.00 0.00 0.00 0.00 0.00 0.00 0.00 0.00 0.01 0.01 0.01 0.01 0.01 0.01 0.01 0.01 0.02 0.02
MSLP
1015.05 1014.97 1014.77 1014.51 1014.21 1013.94 1013.76 1013.70 1013.80 1014.08 1014.52 1015.10 1015.78 1016.51 1017.24 1017.91 1018.49 1018.93 1019.25 1019.42 1019.47 1019.42 1019.30 1019.14 1018.97 1018.80 1018.66 1018.53 1018.43 1018.33 1018.21 1018.07 1017.88 1017.62 1017.31 1016.93 1016.50 1016.03 1015.54 1015.05 1014.55 1014.07 1013.60 1013.13
1014.88 1014.77 1014.53 1014.22 1013.87 1013.55 1013.31 1013.21 1013.30 1013.57 1014.04 1014.67 1015.42 1016.24 1017.05 1017.79 1018.43 1018.93 1019.27 1019.45 1019.48 1019.42 1019.28 1019.11 1018.95 1018.80 1018.69 1018.62 1018.57 1018.52 1018.46 1018.35 1018.18 1017.93 1017.61 1017.20 1016.73 1016.21 1015.67 1015.12 1014.58 1014.06 1013.55 1013.05
1014.49 1014.36 1014.12 1013.79 1013.43 1013.11 1012.87 1012.78 1012.88 1013.18 1013.70 1014.39 1015.20 1016.09 1016.96 1017.77 1018.45 1018.98 1019.33 1019.50 1019.53 1019.46 1019.31 1019.14 1018.97 1018.85 1018.76 1018.72 1018.70 1018.68 1018.63 1018.52 1018.34 1018.07 1017.70 1017.24 1016.72 1016.15 1015.55 1014.96 1014.38 1013.83 1013.30 1012.79
1013.94 1013.81 1013.59 1013.29 1012.97 1012.68 1012.49 1012.44 1012.59 1012.95 1013.51 1014.25 1015.13 1016.06 1016.98 1017.82 1018.54 1019.08 1019.44 1019.62 1019.65 1019.57 1019.42 1019.25 1019.09 1018.97 1018.89 1018.85 1018.82 1018.78 1018.70 1018.56 1018.32 1017.99 1017.55 1017.03 1016.44 1015.81 1015.17 1014.54 1013.94 1013.38 1012.85 1012.34
1013.32 1013.22 1013.04 1012.80 1012.55 1012.33 1012.21 1012.24 1012.45 1012.87 1013.49 1014.27 1015.17 1016.13 1017.07 1017.93 1018.66 1019.21 1019.58 1019.77 1019.81 1019.74 1019.60 1019.44 1019.28 1019.15 1019.06 1018.98 1018.91 1018.81 1018.66 1018.43 1018.11 1017.69 1017.17 1016.57 1015.92 1015.25 1014.58 1013.93 1013.32 1012.76 1012.24 1011.75
1012.75 1012.69 1012.57 1012.41 1012.25 1012.13 1012.10 1012.21 1012.49 1012.96 1013.61 1014.41 1015.32 1016.27 1017.20 1018.05 1018.77 1019.32 1019.69 1019.90 1019.96 1019.91 1019.80 1019.65 1019.49 1019.34 1019.21 1019.08 1018.93 1018.74 1018.48 1018.15 1017.72 1017.21 1016.61 1015.95 1015.26 1014.56 1013.88 1013.23 1012.63 1012.07 1011.56 1011.08
1012.28 1012.27 1012.22 1012.15 1012.10 1012.08 1012.15 1012.34 1012.69 1013.19 1013.85 1014.65 1015.53 1016.44 1017.33 1018.14 1018.83 1019.37 1019.75 1019.97 1020.06 1020.04 1019.94 1019.81 1019.65 1019.48 1019.29 1019.09 1018.85 1018.55 1018.18 1017.74 1017.21 1016.62 1015.96 1015.27 1014.56 1013.87 1013.20 1012.56 1011.97 1011.43 1010.91 1010.41
1011.96 1012.00 1012.03 1012.06 1012.10 1012.20 1012.36 1012.63 1013.02 1013.54 1014.20 1014.95 1015.78 1016.63 1017.45 1018.20 1018.85 1019.36 1019.73 1019.96 1020.07 1020.08 1020.01 1019.89 1019.72 1019.52 1019.29 1019.01 1018.67 1018.27 1017.80 1017.26 1016.66 1016.01 1015.33 1014.64 1013.96 1013.29 1012.65 1012.05 1011.47 1010.91 1010.36 1009.80
1011.78 1011.86 1011.97 1012.09 1012.24 1012.43 1012.68 1013.02 1013.45 1013.98 1014.61 1015.31 1016.06 1016.82 1017.56 1018.23 1018.81 1019.29 1019.64 1019.87 1020.00 1020.03 1019.99 1019.88 1019.71 1019.48 1019.20 1018.85 1018.43 1017.95 1017.40 1016.80 1016.16 1015.50 1014.83 1014.17 1013.54 1012.93 1012.34 1011.77 1011.19 1010.59 1009.96 1009.29
1011.69 1011.82 1011.99 1012.20 1012.44 1012.73 1013.06 1013.46 1013.92 1014.45 1015.05 1015.69 1016.36 1017.04 1017.68 1018.27 1018.78 1019.20 1019.53 1019.75 1019.89 1019.94 1019.91 1019.81 1019.64 1019.40 1019.08 1018.68 1018.20 1017.67 1017.07 1016.44 1015.80 1015.16 1014.53 1013.94 1013.38 1012.84 1012.30 1011.75 1011.15 1010.48 1009.73 1008.90
1011.64 1011.80 1012.04 1012.32 1012.65 1013.02 1013.43 1013.89 1014.38 1014.92 1015.49 1016.08 1016.68 1017.27 1017.83 1018.33 1018.78 1019.15 1019.44 1019.66 1019.79 1019.85 1019.84 1019.75 1019.58 1019.32 1018.98 1018.55 1018.05 1017.49 1016.88 1016.25 1015.64 1015.04 1014.49 1013.97 1013.49 1013.02 1012.52 1011.97 1011.33 1010.58 1009.68 1008.65
1011.57 1011.77 1012.06 1012.41 1012.82 1013.26 1013.75 1014.26 1014.80 1015.35 1015.91 1016.47 1017.02 1017.54 1018.02 1018.46 1018.85 1019.17 1019.44 1019.63 1019.77 1019.83 1019.82 1019.74 1019.57 1019.31 1018.96 1018.53 1018.02 1017.46 1016.86 1016.27 1015.70 1015.16 1014.68 1014.25 1013.84 1013.42 1012.96 1012.40 1011.71 1010.85 1009.80 1008.57
1011.47 1011.70 1012.03 1012.44 1012.91 1013.44 1013.99 1014.56 1015.14 1015.72 1016.28 1016.83 1017.35 1017.83 1018.27 1018.65 1018.99 1019.28 1019.51 1019.70 1019.82 1019.88 1019.88 1019.80 1019.63 1019.38 1019.04 1018.61 1018.12 1017.58 1017.02 1016.47 1015.95 1015.48 1015.06 1014.69 1014.34 1013.97 1013.52 1012.95 1012.21 1011.26 1010.08 1008.68
1011.33 1011.58 1011.96 1012.42 1012.95 1013.54 1014.15 1014.78 1015.41 1016.02 1016.60 1017.15 1017.66 1018.12 1018.53 1018.88 1019.19 1019.45 1019.66 1019.82 1019.93 1019.99 1019.99 1019.91 1019.76 1019.52 1019.20 1018.79 1018.33 1017.82 1017.30 1016.80 1016.33 1015.92 1015.56 1015.23 1014.92 1014.57 1014.13 1013.56 1012.78 1011.78 1010.52 1009.02
1011.17 1011.45 1011.87 1012.38 1012.96 1013.60 1014.27 1014.95 1015.61 1016.26 1016.86 1017.42 1017.93 1018.38 1018.77 1019.10 1019.39 1019.62 1019.81 1019.96 1020.06 1020.11 1020.10 1020.04 1019.89 1019.68 1019.38 1019.01 1018.59 1018.13 1017.66 1017.20 1016.78 1016.41 1016.09 1015.79 1015.50 1015.17 1014.74 1014.17 1013.40 1012.39 1011.12 1009.61
1011.01 1011.34 1011.80 1012.35 1012.98 1013.66 1014.37 1015.08 1015.77 1016.44 1017.06 1017.63 1018.13 1018.57 1018.95 1019.27 1019.54 1019.75 1019.92 1020.05 1020.14 1020.18 1020.18 1020.12 1020.00 1019.81 1019.55 1019.22 1018.85 1018.44 1018.03 1017.62 1017.24 1016.90 1016.60 1016.33 1016.05 1015.73 1015.32 1014.76 1014.02 1013.06 1011.86 1010.42
1010.90 1011.28 1011.78 1012.37 1013.04 1013.74 1014.47 1015.20 1015.91 1016.58 1017.20 1017.76 1018.26 1018.69 1019.05 1019.35 1019.60 1019.79 1019.94 1020.06 1020.13 1020.17 1020.17 1020.13 1020.03 1019.88 1019.66 1019.39 1019.08 1018.73 1018.37 1018.01 1017.68 1017.36 1017.08 1016.82 1016.55 1016.23 1015.84 1015.33 1014.66 1013.79 1012.71 1011.42
1010.84 1011.28 1011.83 1012.46 1013.15 1013.87 1014.61 1015.33 1016.03 1016.68 1017.28 1017.83 1018.30 1018.71 1019.05 1019.33 1019.55 1019.73 1019.86 1019.97 1020.04 1020.08 1020.09 1020.06 1019.99 1019.88 1019.72 1019.52 1019.27 1018.99 1018.69 1018.39 1018.09 1017.81 1017.54 1017.28 1017.01 1016.71 1016.34 1015.88 1015.29 1014.55 1013.63 1012.53
1010.84 1011.35 1011.95 1012.61 1013.32 1014.05 1014.77 1015.47 1016.14 1016.76 1017.33 1017.84 1018.28 1018.65 1018.97 1019.22 1019.43 1019.59 1019.71 1019.81 1019.87 1019.92 1019.95 1019.95 1019.92 1019.86 1019.76 1019.63 1019.45 1019.24 1019.01 1018.76 1018.50 1018.25 1017.99 1017.73 1017.47 1017.18 1016.84 1016.42 1015.92 1015.30 1014.55 1013.66
1010.89 1011.47 1012.12 1012.81 1013.53 1014.25 1014.95 1015.61 1016.24 1016.82 1017.34 1017.81 1018.21 1018.56 1018.84 1019.08 1019.27 1019.42 1019.54 1019.63 1019.71 1019.77 1019.82 1019.85 1019.87 1019.86 1019.82 1019.76 1019.65 1019.52 1019.35 1019.16 1018.94 1018.71 1018.47 1018.22 1017.95 1017.66 1017.34 1016.97 1016.53 1016.01 1015.41 1014.72
1011.00 1011.63 1012.32 1013.03 1013.75 1014.45 1015.12 1015.75 1016.33 1016.87 1017.34 1017.77 1018.13 1018.45 1018.72 1018.94 1019.12 1019.28 1019.40 1019.51 1019.60 1019.69 1019.76 1019.83 1019.89 1019.93 1019.95 1019.94 1019.91 1019.83 1019.73 1019.59 1019.41 1019.21 1018.98 1018.74 1018.47 1018.18 1017.86 1017.51 1017.12 1016.68 1016.19 1015.64
1011.15 1011.81 1012.52 1013.24 1013.95 1014.63 1015.27 1015.86 1016.41 1016.89 1017.33 1017.72 1018.06 1018.35 1018.61 1018.83 1019.03 1019.19 1019.33 1019.46 1019.58 1019.69 1019.80 1019.90 1019.99 1020.08 1020.14 1020.19 1020.20 1020.19 1020.13 1020.03 1019.89 1019.72 1019.51 1019.27 1019.00 1018.70 1018.38 1018.04 1017.67 1017.28 1016.86 1016.41
1011.32 1012.00 1012.71 1013.42 1014.12 1014.77 1015.38 1015.94 1016.44 1016.90 1017.30 1017.67 1017.99 1018.28 1018.54 1018.77 1018.98 1019.17 1019.34 1019.50 1019.64 1019.78 1019.92 1020.05 1020.17 1020.28 1020.38 1020.46 1020.51 1020.53 1020.51 1020.45 1020.34 1020.19 1020.00 1019.77 1019.50 1019.20 1018.88 1018.54 1018.19 1017.82 1017.44 1017.04
1011.50 1012.17 1012.87 1013.56 1014.22 1014.85 1015.43 1015.96 1016.43 1016.86 1017.25 1017.60 1017.91 1018.21 1018.48 1018.73 1018.96 1019.18 1019.38 1019.57 1019.74 1019.91 1020.06 1020.21 1020.35 1020.48 1020.60 1020.70 1020.77 1020.81 1020.82 1020.78 1020.70 1020.57 1020.40 1020.18 1019.93 1019.64 1019.33 1019.00 1018.66 1018.31 1017.95 1017.59
1011.67 1012.31 1012.97 1013.63 1014.27 1014.86 1015.41 1015.91 1016.36 1016.77 1017.14 1017.48 1017.80 1018.10 1018.38 1018.65 1018.91 1019.16 1019.39 1019.60 1019.80 1019.99 1020.16 1020.32 1020.47 1020.60 1020.73 1020.83 1020.91 1020.96 1020.98 1020.97 1020.91 1020.81 1020.66 1020.48 1020.25 1019.99 1019.70 1019.40 1019.08 1018.75 1018.41 1018.08
1011.80 1012.39 1013.01 1013.63 1014.22 1014.78 1015.30 1015.77 1016.21 1016.60 1016.96 1017.29 1017.61 1017.91 1018.21 1018.50 1018.77 1019.04 1019.29 1019.53 1019.75 1019.95 1020.13 1020.29 1020.44 1020.58 1020.70 1020.80 1020.88 1020.94 1020.97 1020.97 1020.94 1020.87 1020.76 1020.61 1020.43 1020.21 1019.97 1019.71 1019.43 1019.13 1018.84 1018.54
1011.84 1012.38 1012.95 1013.52 1014.08 1014.60 1015.09 1015.54 1015.94 1016.32 1016.66 1016.99 1017.31 1017.61 1017.91 1018.20 1018.49 1018.77 1019.03 1019.28 1019.51 1019.72 1019.91 1020.08 1020.23 1020.37 1020.48 1020.58 1020.66 1020.72 1020.77 1020.79 1020.78 1020.75 1020.69 1020.59 1020.46 1020.30 1020.12 1019.91 1019.69 1019.45 1019.21 1018.95
Thickness
5680 5680 5679 5678 5678 5677 5676 5680 5677 5684 5684 5685 5684 5680 5679 5678 5675 5673 5672 5671 5670 5668 5668 5667 5667 5667 5667 5666 5666 5665 5664 5662 5661 5661 5659 5656 5655 5653 5652 5651 5650 5650 5649 5649
5669 5671 5670 5669 5675 5675 5673 5675 5675 5676 5678 5685 5682 5679 5675 5673 5670 5667 5666 5665 5664 5663 5662 5661 5661 5661 5660 5660 5659 5659 5658 5657 5655 5654 5652 5650 5649 5647 5645 5644 5643 5643 5642 5642
5662 5664 5661 5662 5676 5674 5672 5675 5673 5670 5677 5677 5672 5670 5669 5668 5665 5663 5661 5660 5659 5659 5658 5656 5656 5655 5654 5654 5654 5652 5651 5649 5648 5646 5645 5643 5642 5641 5639 5638 5637 5636 5636 5635
5655 5652 5646 5674 5679 5675 5671 5671 5673 5671 5672 5669 5667 5666 5664 5663 5661 5659 5657 5655 5654 5654 5652 5651 5650 5649 5648 5648 5647 5646 5644 5642 5641 5639 5637 5636 5636 5634 5633 5633 5631 5630 5630 5629
5646 5645 5655 5666 5667 5664 5661 5663 5668 5665 5664 5662 5660 5657 5658 5658 5655 5654 5652 5650 5648 5648 5646 5645 5643 5642 5641 5641 5640 5638 5636 5635 5634 5632 5631 5630 5629 5628 5628 5626 5625 5624 5623 5622
5638 5635 5641 5660 5662 5662 5656 5653 5663 5660 5656 5654 5651 5650 5654 5653 5648 5646 5644 5643 5641 5640 5639 5637 5636 5635 5634 5633 5632 5631 5630 5628 5627 5626 5624 5623 5623 5623 5621 5620 5619 5618 5617 5616
5633 5633 5646 5655 5652 5650 5641 5650 5656 5654 5651 5648 5646 5649 5648 5645 5641 5639 5636 5635 5633 5632 5631 5629 5628 5627 5626 5626 5625 5625 5623 5621 5620 5619 5618 5617 5617 5616 5614 5613 5612 5611 5610 5610
5630 5626 5635 5644 5641 5641 5646 5649 5648 5646 5645 5642 5641 5639 5637 5635 5632 5630 5628 5626 5625 5624 5622 5621 5620 5619 5619 5617 5617 5616 5615 5614 5613 5612 5611 5610 5608 5607 5606 5605 5605 5604 5603 5602
5633 5635 5638 5638 5638 5638 5638 5638 5638 5637 5636 5634 5631 5629 5627 5626 5624 5622 5620 5619 5617 5615 5614 5613 5612 5611 5610 5609 5608 5608 5606 5605 5604 5604 5603 5602 5601 5599 5598 5597 5596 5596 5595 5594
5624 5631 5630 5628 5629 5628 5628 5628 5628 5628 5626 5625 5622 5621 5619 5617 5616 5614 5612 5611 5609 5607 5606 5604 5603 5602 5601 5600 5600 5600 5598 5597 5596 5595 5594 5593 5592 5591 5590 5589 5587 5587 5586 5585
5616 5622 5621 5621 5621 5620 5620 5619 5619 5618 5617 5616 5614 5612 5610 5608 5607 5606 5604 5603 5602 5600 5598 5596 5594 5593 5593 5592 5592 5591 5591 5589 5587 5586 5584 5583 5582 5581 5581 5580 5578 5577 5577 5576
5613 5618 5615 5616 5616 5614 5612 5611 5610 5609 5608 5607 5606 5604 5602 5601 5599 5598 5597 5596 5594 5591 5589 5588 5586 5585 5584 5583 5583 5583 5582 5580 5578 5576 5575 5574 5573 5573 5570 5568 5567 5566 5564 5563
5608 5608 5607 5607 5607 5606 5604 5604 5602 5601 5599 5598 5597 5596 5594 5592 5590 5589 5588 5587 5585 5583 5581 5580 5578 5576 5575 5574 5573 5573 5573 5571 5569 5567 5566 5565 5564 5564 5563 5560 5558 5556 5554 5553
5597 5596 5597 5598 5598 5597 5597 5596 5595 5594 5592 5591 5589 5588 5585 5583 5582 5581 5579 5578 5577 5575 5573 5571 5569 5568 5566 5565 5564 5564 5563 5561 5560 5558 5557 5556 5555 5555 5554 5553 5552 5550 5547 5544
5589 5589 5591 5591 5590 5589 5588 5588 5586 5586 5584 5582 5581 5579 5577 5575 5574 5572 5571 5570 5569 5567 5565 5563 5561 5559 5557 5556 5555 5554 5554 5552 5550 5549 5547 5546 5545 5544 5544 5543 5542 5541 5539 5537
5580 5581 5581 5581 5581 5580 5580 5579 5579 5578 5577 5575 5573 5571 5569 5568 5566 5564 5563 5561 5560 5559 5557 5555 5553 5551 5549 5548 5547 5546 5545 5542 5540 5539 5538 5536 5535 5534 5534 5533 5532 5530 5529 5528
5571 5572 5573 5573 5573 5573 5573 5572 5572 5570 5569 5567 5565 5563 5561 5559 5558 5556 5554 5552 5552 5551 5549 5547 5545 5543 5541 5540 5539 5538 5537 5535 5531 5531 5530 5528 5527 5526 5525 5524 5523 5522 5520 5518
5566 5566 5566 5566 5566 5565 5565 5564 5563 5562 5561 5559 5556 5554 5552 5551 5550 5548 5546 5544 5543 5542 5540 5539 5536 5534 5532 5531 5530 5529 5528 5527 5525 5523 5521 5520 5519 5517 5516 5515 5514 5513 5512 5510
5557 5558 5558 5558 5557 5557 5556 5556 5555 5554 5552 5551 5548 5546 5545 5544 5542 5541 5539 5537 5535 5534 5532 5529 5526 5525 5524 5522 5520 5520 5519 5518 5516 5515 5513 5511 5510 5510 5508 5507 5506 5505 5504 5503
5548 5549 5549 5549 5548 5548 5547 5547 5546 5545 5543 5542 5540 5539 5537 5536 5534 5532 5530 5529 5527 5525 5523 5520 5519 5518 5516 5514 5511 5511 5510 5508 5507 5506 5505 5503 5502 5502 5501 5499 5498 5497 5496 5495
5539 5539 5538 5539 5538 5538 5538 5537 5536 5535 5534 5532 5531 5530 5529 5527 5525 5523 5522 5520 5518 5515 5513 5510 5510 5509 5507 5505 5502 5503 5501 5500 5498 5497 5496 5495 5494 5493 5492 5491 5490 5489 5488 5488
5529 5529 5529 5529 5529 5529 5529 5528 5527 5526 5525 5523 5522 5521 5520 5518 5516 5514 5513 5511 5509 5504 5503 5503 5502 5500 5498 5496 5495 5494 5493 5492 5490 5489 5488 5487 5486 5484 5483 5482 5482 5481 5480 5480
5520 5520 5520 5520 5520 5520 5519 5518 5517 5517 5516 5515 5514 5512 5511 5509 5508 5506 5505 5502 5500 5497 5495 5495 5493 5490 5488 5488 5487 5486 5485 5484 5483 5482 5480 5479 5478 5477 5476 5474 5473 5472 5472 5472
5509 5509 5509 5509 5509 5510 5510 5510 5508 5508 5507 5506 5505 5503 5502 5500 5499 5497 5496 5492 5490 5487 5487 5485 5482 5481 5479 5480 5479 5478 5477 5476 5475 5474 5473 5472 5470 5469 5468 5467 5465 5465 5464 5464
5498 5499 5499 5499 5500 5500 5500 5499 5499 5498 5497 5496 5495 5493 5492 5490 5489 5488 5486 5484 5481 5478 5478 5476 5473 5472 5472 5472 5471 5469 5468 5467 5466 5465 5464 5463 5462 5461 5460 5459 5458 5457 5457 5457
5489 5490 5490 5490 5491 5490 5490 5490 5490 5489 5488 5487 5486 5483 5482 5480 5479 5477 5476 5474 5472 5469 5469 5468 5467 5465 5464 5463 5462 5461 5460 5459 5457 5456 5455 5455 5454 5453 5452 5451 5450 5449 5449 5449
5480 5480 5480 5480 5480 5480 5479 5479 5479 5479 5478 5477 5475 5473 5472 5470 5469 5467 5466 5465 5463 5462 5461 5459 5458 5457 5456 5455 5453 5452 5451 5450 5449 5448 5447 5446 5445 5444 5443 5442 5441 5441 5440 5440